Location: Bremen
(53.0796°N, 8.8241°E)
Time: 02:41:52
(UTC+01:00)

ISS - Pass Details

Date: 09 January 2018
Orbit: 402 x 407 km, 51.6° (Epoch: 23 January)

Event Time Altitude Azimuth Distance (km) Brightness Sun altitude
Exits shadow 07:20:51 13° 265° (W) 1,288 -1.8 -10.5°
Maximum altitude 07:23:17 30° 206° (SSW) 754 -2.5 -10.2°
Drops below altitude 10° 07:26:13 10° 143° (SE) 1,466 0.1 -9.8°
Sets 07:28:26 0° 132° (SE) 2,325 1.7 -9.5°
